Theta_e
284 284 284 283 283 283 283 283 282 282 282 282 281 281 281 281 281 280 280 280 280 279 279 279 278 278 278 279 279 279 280 281 281 282 282 282 282 283 283 283 283 283 283 283 284 285 285 285 286 286 286 286 286 287 287 287 288 288 288 288 288 288 288 287 287 288 289 290 292 294 296 298 299 300 300 301 301 303 305 306 306 307 307 308 308
284 284 284 284 284 283 283 283 282 282 282 281 281 281 281 281 280 280 280 280 279 279 279 278 278 278 278 277 277 278 278 278 279 280 281 281 282 282 282 283 283 283 283 283 283 283 284 285 285 285 285 285 286 286 286 287 287 287 287 288 288 288 288 288 287 287 288 289 291 293 294 296 298 299 299 299 300 301 303 304 305 306 306 307 307
284 284 284 284 284 283 283 282 282 282 281 281 281 281 280 280 280 280 279 279 279 279 279 278 278 278 277 277 277 277 277 277 277 278 279 280 281 281 282 282 283 283 283 282 282 282 282 283 283 284 285 285 285 285 285 286 287 287 287 287 287 288 288 288 287 287 287 288 290 291 293 295 297 299 299 298 298 301 302 303 304 305 306 306 306
284 284 284 284 283 283 283 282 282 282 281 281 281 281 280 280 280 279 279 279 279 279 278 278 278 278 277 277 277 277 277 277 277 277 277 278 279 280 280 281 282 283 283 283 282 282 282 282 282 283 283 284 284 284 285 285 285 286 287 287 287 287 287 287 287 287 287 287 288 290 293 294 295 297 299 299 300 301 302 302 303 304 305 306 306
284 284 284 284 283 283 282 282 282 281 281 281 281 280 280 280 280 279 279 279 279 279 278 278 278 278 277 277 277 277 277 277 277 277 277 277 277 278 278 279 281 282 283 283 282 282 282 282 282 282 282 282 283 283 284 284 285 285 286 287 287 287 287 287 287 287 287 287 287 289 292 294 295 296 297 299 300 301 302 302 303 303 304 305 305
284 284 284 284 283 283 282 282 282 281 281 281 281 280 280 280 279 279 279 279 279 279 279 278 278 278 277 277 277 277 277 277 277 277 277 277 277 277 277 277 278 280 281 282 282 282 282 282 282 282 282 282 282 282 282 283 284 285 285 286 286 287 287 287 287 287 287 286 287 287 289 291 294 295 295 296 298 299 300 301 302 302 303 304 304
284 284 284 283 283 282 282 282 281 281 281 281 280 280 280 280 279 279 279 279 279 279 279 278 278 278 277 277 277 277 277 277 276 276 276 276 276 276 277 277 277 278 279 281 282 282 282 282 282 282 282 282 282 282 282 282 282 283 284 285 286 286 287 287 287 287 287 287 286 287 287 289 291 292 293 293 295 297 298 300 300 301 302 302 303
284 284 283 283 283 282 282 282 281 281 281 280 280 280 280 279 279 279 279 279 279 279 279 278 278 278 277 277 277 277 276 276 276 276 276 276 276 276 276 277 277 277 278 279 280 281 281 281 282 281 281 281 281 281 282 282 282 282 283 284 285 285 286 286 287 287 287 287 287 287 287 288 288 290 291 292 292 294 295 297 299 299 300 301 302
284 283 283 283 283 282 282 282 281 281 281 280 280 280 280 279 279 279 279 279 279 279 279 278 278 278 278 277 277 277 276 276 276 276 276 275 275 275 275 275 276 276 277 277 279 280 281 280 281 281 281 281 281 281 281 281 281 281 281 282 283 284 285 285 286 287 287 287 287 287 287 288 288 288 289 290 291 292 293 294 296 297 298 299 301
283 283 283 283 282 282 281 281 281 281 280 280 280 280 280 280 279 279 279 279 279 279 278 278 278 278 277 277 277 277 276 276 276 276 276 275 275 275 274 274 275 275 276 277 277 279 280 280 280 280 281 281 281 281 281 281 281 281 281 281 281 283 284 285 285 286 286 287 287 287 287 288 288 288 288 289 290 291 291 292 294 295 296 298 299
283 283 282 282 282 281 281 280 280 280 280 280 280 280 280 280 279 279 279 279 279 278 278 278 278 277 277 277 277 277 276 276 276 276 275 275 274 274 273 274 274 275 276 278 278 278 279 279 280 280 280 280 280 280 281 281 281 281 281 281 280 281 282 283 284 285 286 286 287 287 287 287 288 288 288 288 289 290 290 291 292 293 294 296 297
282 282 282 281 280 280 280 280 280 280 280 280 279 279 279 279 279 279 279 279 278 278 278 278 277 277 277 277 276 276 276 275 275 275 275 274 274 273 272 273 274 275 277 278 278 279 279 279 280 280 280 280 280 280 280 281 281 281 281 281 280 280 280 281 283 284 285 286 286 287 287 287 287 288 288 288 288 289 290 290 291 292 293 294 295
281 281 280 279 279 279 280 280 279 279 279 279 279 279 279 279 279 279 278 278 278 278 278 277 277 276 276 276 275 275 275 275 274 274 273 273 272 272 272 273 274 274 276 277 278 278 279 279 279 279 279 279 279 279 280 280 280 281 281 281 281 280 280 280 281 282 284 284 285 286 287 287 287 287 287 288 288 288 289 290 290 291 291 292 293
280 279 279 279 279 279 279 279 278 278 278 278 278 278 278 278 278 278 278 278 278 278 277 277 276 276 275 275 275 274 274 273 273 272 272 271 271 271 272 273 273 274 274 276 276 277 277 278 278 278 278 278 279 279 279 280 280 280 281 281 281 280 280 279 279 280 282 283 284 285 286 287 287 287 287 287 287 288 289 289 290 290 290 290 291
279 278 279 279 279 278 278 278 278 278 277 278 278 277 277 277 277 277 277 277 277 277 277 276 275 275 274 274 274 273 272 272 271 271 271 270 270 270 271 272 273 273 273 274 274 275 275 276 277 277 277 277 278 278 278 279 279 280 280 280 281 280 280 280 280 279 280 282 284 284 285 286 286 287 287 287 287 287 288 289 289 289 290 290 290
278 278 278 278 278 278 278 277 276 276 276 276 276 275 275 275 276 276 276 277 277 276 275 275 274 274 273 273 272 272 271 271 270 270 269 269 269 269 270 271 272 272 272 272 273 273 274 274 275 276 276 277 277 277 277 278 278 279 279 280 280 280 280 280 280 280 279 281 283 284 284 285 286 286 287 287 287 287 288 288 289 289 289 290 290
278 278 277 277 277 277 276 275 275 274 273 273 273 273 273 274 274 275 276 276 275 275 274 273 273 272 272 271 271 270 270 269 269 269 269 269 269 270 270 270 271 271 271 271 272 272 272 273 273 274 275 276 276 276 277 277 277 278 279 279 279 279 280 280 280 280 280 280 281 283 283 284 285 286 286 287 287 287 288 288 288 289 289 289 290
278 277 277 277 276 275 274 274 273 272 272 272 272 272 273 273 274 275 274 273 273 272 272 271 271 271 270 270 270 269 269 268 268 268 269 269 270 270 270 270 270 270 270 271 271 271 271 272 272 272 273 274 275 275 276 276 276 277 278 278 278 279 279 279 279 280 280 280 280 282 283 283 284 285 286 287 287 287 287 288 288 288 288 289 289
277 276 276 275 274 273 272 272 271 271 271 271 271 271 271 272 273 272 272 271 271 271 270 270 270 270 269 269 268 268 268 268 268 268 269 269 269 269 269 269 269 269 269 270 270 270 271 271 271 271 272 272 273 274 274 275 275 276 277 277 277 278 278 279 279 279 279 279 279 280 282 283 284 284 285 287 287 287 287 287 288 287 287 288 288
275 276 275 274 273 272 271 271 270 270 270 270 269 269 270 270 270 270 270 270 270 270 269 269 269 269 268 268 268 268 268 268 268 268 268 268 268 268 268 268 268 268 268 269 269 269 269 269 270 270 270 271 271 272 273 274 274 275 276 276 277 277 277 278 278 278 278 279 279 279 280 282 284 284 285 286 287 287 287 287 287 287 287 287 288
275 275 274 273 272 271 270 270 269 269 269 268 268 268 268 268 268 268 269 269 269 269 268 268 268 268 267 267 267 267 268 267 267 267 267 267 267 267 267 267 267 267 268 268 268 268 268 268 268 269 269 270 270 271 272 273 274 274 275 275 276 276 277 277 277 278 278 278 279 279 280 282 283 283 284 285 286 287 287 287 287 287 287 287 287
274 273 273 272 271 270 270 269 268 268 268 267 267 267 267 267 268 268 268 268 267 267 267 267 267 267 267 267 267 267 267 267 267 266 266 266 266 266 266 266 266 266 267 267 267 267 267 267 268 268 268 269 270 270 271 272 273 274 274 275 276 276 277 277 277 278 278 278 279 279 280 281 282 283 284 285 286 286 287 287 287 286 287 287 287
272 272 271 271 270 269 268 268 267 267 267 267 267 267 267 267 267 267 267 266 266 266 266 267 267 267 267 267 267 267 267 266 266 266 266 266 266 266 266 266 266 266 266 267 267 267 267 268 268 268 268 269 269 270 270 271 272 273 274 275 276 277 277 278 278 278 279 279 279 279 280 281 282 283 284 285 286 286 287 287 287 286 286 287 287
271 271 271 270 269 268 267 267 267 266 266 266 266 267 267 266 266 266 266 266 266 266 266 266 266 266 267 267 266 266 266 266 266 266 266 266 266 266 266 266 266 266 266 267 267 267 267 267 268 268 269 269 269 270 270 271 272 273 274 274 275 276 276 277 277 278 280 280 280 280 280 281 282 283 284 285 286 286 286 287 286 286 286 286 286
270 270 270 269 268 267 266 266 266 265 265 265 265 265 265 265 265 265 265 265 265 265 266 266 266 266 266 266 266 266 266 266 266 266 266 266 266 266 266 266 266 266 267 267 267 267 267 267 267 268 269 270 270 270 271 272 272 273 273 274 275 276 276 276 276 277 279 280 280 280 280 281 282 283 284 285 286 286 286 287 286 286 285 285 285
270 269 269 268 267 266 266 266 265 264 264 264 264 264 265 265 264 264 264 265 265 265 265 265 265 265 266 266 266 266 266 266 266 266 266 266 266 266 266 266 266 266 267 267 267 267 267 267 267 268 269 270 270 270 271 272 272 273 273 273 274 275 276 276 276 277 278 280 280 281 281 281 282 284 284 285 286 286 286 287 286 286 285 285 286
269 269 268 266 265 265 265 265 264 263 263 263 263 264 264 264 264 264 264 264 264 265 265 265 265 265 265 265 266 266 266 266 266 266 266 266 266 266 266 266 267 266 267 267 267 267 267 267 268 268 269 269 270 270 270 271 272 272 272 273 274 275 276 276 276 277 278 279 280 281 282 282 283 284 285 285 286 286 287 287 286 286 286 286 286
269 268 266 265 265 264 264 264 263 263 262 262 263 263 263 263 263 264 264 264 264 264 264 264 265 265 265 265 265 265 265 266 266 266 266 266 266 266 266 266 266 266 267 267 267 267 267 268 268 268 269 269 269 270 270 270 271 271 272 272 273 274 275 276 277 277 278 279 280 281 282 283 283 284 284 285 286 286 287 287 286 286 286 286 286
268 266 265 264 264 264 263 263 262 262 262 262 262 262 263 263 263 263 263 264 264 264 264 264 264 264 265 265 265 265 265 265 265 266 266 266 266 266 266 266 267 267 267 267 267 267 268 268 268 269 269 269 269 269 270 270 270 270 271 272 273 274 275 276 276 277 278 278 279 281 282 283 283 284 284 285 286 286 286 286 286 286 285 285 285
267 265 265 264 263 263 262 262 262 262 262 262 262 262 262 262 263 263 263 263 263 263 264 264 264 264 264 265 265 265 265 265 266 266 266 266 266 267 267 267 267 268 268 268 268 268 269 269 269 269 270 270 270 270 270 271 271 271 271 271 272 273 275 276 276 277 277 278 279 280 282 283 284 284 285 285 285 286 286 286 286 286 285 285 285
266 265 264 263 263 262 262 262 261 261 261 261 261 262 262 262 262 263 263 263 263 263 263 264 264 264 265 265 265 265 265 266 266 267 267 267 267 267 268 268 268 269 269 269 269 270 270 270 270 271 271 271 272 272 272 272 272 272 271 271 272 273 274 275 276 277 277 278 279 280 282 283 283 284 284 285 285 286 286 286 286 286 286 285 285
265 264 263 262 262 262 261 261 261 261 261 261 261 261 262 262 262 262 263 263 263 263 264 264 265 265 265 265 265 266 266 267 268 268 268 268 268 269 269 269 269 270 270 270 271 271 272 272 272 272 273 273 273 274 273 273 273 273 273 272 273 273 274 275 276 276 277 278 278 280 282 283 283 284 284 284 285 286 286 286 286 286 286 285 285
264 263 262 262 261 261 261 261 261 261 261 261 261 261 261 262 262 262 263 263 263 264 264 265 266 266 266 266 266 267 267 268 268 269 269 269 270 270 270 270 270 271 271 272 272 273 273 273 273 274 274 275 276 276 275 275 275 275 274 274 273 274 274 275 276 276 277 277 278 279 281 282 283 283 284 284 285 285 285 285 286 286 286 286 286
263 263 262 261 261 261 261 261 260 261 261 261 261 261 261 261 262 262 263 263 264 264 265 265 266 267 267 267 267 267 268 269 269 270 270 271 271 271 271 271 272 272 273 273 274 274 275 275 275 275 276 277 278 278 277 277 277 277 276 275 275 275 275 276 276 276 277 277 278 279 280 281 282 283 283 283 284 284 284 285 285 285 285 285 286
263 262 261 261 261 260 260 260 260 261 261 261 262 262 261 261 262 262 263 263 264 264 265 266 267 267 268 267 267 268 269 270 270 271 272 272 272 272 273 273 274 274 275 275 276 276 277 277 277 277 278 279 279 279 279 279 279 278 278 277 277 277 277 278 278 277 277 277 278 279 279 280 282 283 283 283 283 283 284 285 285 285 285 285 286
262 261 261 260 260 260 260 260 260 261 261 261 262 262 261 261 262 262 263 264 264 265 266 267 268 268 268 268 269 269 270 271 271 272 273 273 273 273 273 274 275 276 276 277 277 278 278 279 279 279 279 280 280 280 280 280 280 279 279 279 279 279 280 280 280 279 279 278 278 279 279 280 281 282 283 283 284 283 284 285 285 285 285 285 285
262 261 261 261 260 260 260 260 260 261 261 262 262 262 261 261 262 263 263 264 264 265 266 267 268 269 269 270 270 270 271 272 272 273 273 274 274 274 274 275 276 276 277 278 278 279 279 279 279 279 279 279 280 280 280 280 281 280 280 280 281 281 282 282 282 281 281 280 279 279 279 280 280 282 283 283 284 284 284 284 285 285 285 285 285
261 261 261 261 260 260 260 261 261 261 262 262 262 261 260 261 262 262 263 264 265 266 266 267 268 269 269 270 270 271 272 272 273 274 274 274 274 275 275 275 276 277 278 278 279 279 279 280 280 280 280 279 280 280 280 280 281 281 281 281 282 282 282 283 282 282 282 281 280 279 279 280 280 281 283 283 284 284 284 284 284 285 284 284 285
262 261 261 260 260 260 261 261 261 261 262 262 261 261 260 261 262 262 263 264 265 266 266 267 268 269 270 270 271 271 272 273 273 274 275 275 275 275 275 276 277 277 278 279 279 280 280 280 280 281 280 280 280 281 281 280 280 281 280 281 282 282 282 282 282 282 282 282 282 280 279 279 280 281 282 283 283 283 283 283 284 283 283 284 285
262 262 261 260 260 260 261 261 261 261 262 262 261 260 260 261 262 262 262 263 264 265 266 267 268 269 270 270 271 272 272 273 273 274 275 275 275 275 276 276 277 278 278 279 279 280 280 280 281 281 280 280 280 280 281 280 280 280 280 280 281 281 282 282 282 282 282 282 282 282 281 280 280 281 282 282 282 283 283 283 283 283 283 284 285
262 262 261 261 261 260 261 261 261 261 262 262 261 260 261 261 262 262 263 264 265 266 266 267 268 269 270 271 271 272 273 273 273 274 275 275 276 276 276 276 277 278 279 279 279 279 280 280 281 281 281 280 280 280 280 280 280 280 280 280 280 280 281 282 282 282 282 282 282 283 282 281 280 280 281 282 282 282 282 282 282 283 283 283 284
263 262 261 261 261 261 261 262 262 262 262 261 260 260 261 262 262 263 263 264 266 266 267 268 269 270 271 272 272 272 273 273 274 274 275 275 276 276 276 277 278 278 278 279 279 279 280 280 281 281 281 281 281 281 280 281 280 280 280 280 280 280 280 281 282 282 282 282 282 282 283 282 281 280 281 281 282 282 282 282 283 283 283 283 283
263 262 261 260 260 261 261 262 262 261 262 261 261 261 261 262 262 263 264 265 266 267 268 268 269 270 271 272 273 273 273 273 274 274 275 275 276 276 277 277 278 278 278 279 279 280 280 281 281 281 281 281 281 281 281 281 281 281 281 281 281 281 280 280 281 282 282 282 282 282 283 283 283 281 281 281 282 282 282 282 282 283 283 283 283
264 263 262 261 260 261 261 262 262 262 262 261 261 261 261 262 263 263 264 265 267 268 268 269 270 270 271 272 273 274 273 273 274 274 275 275 276 276 277 277 278 278 278 278 279 280 280 281 281 281 281 281 281 281 281 281 281 281 281 281 281 281 281 280 280 281 282 282 283 283 283 283 284 283 282 282 282 282 283 283 283 283 283 284 284
264 264 263 261 261 261 261 262 263 262 262 262 261 261 261 262 263 264 264 265 266 268 269 269 270 271 271 272 273 274 274 273 274 274 275 275 276 276 277 277 277 277 277 277 278 279 280 280 281 281 281 281 281 281 281 281 281 281 281 281 281 281 281 281 281 281 281 282 282 283 283 283 284 284 284 284 284 284 284 284 284 284 284 285 285
265 264 263 262 262 261 262 263 264 263 263 262 262 261 262 262 263 264 265 265 266 268 269 270 270 271 272 272 273 274 274 274 274 274 275 275 275 276 276 277 277 277 277 277 278 279 279 280 280 281 281 281 281 281 281 281 280 280 280 280 281 281 281 281 281 281 281 281 281 282 282 283 283 283 283 284 284 284 285 285 285 285 285 285 285
265 265 264 263 262 262 262 263 263 264 264 263 263 262 262 263 263 264 265 266 267 268 269 270 271 271 271 272 273 274 275 275 275 275 275 275 275 275 276 276 276 276 276 276 277 278 278 279 280 280 280 281 280 280 280 280 280 280 280 279 280 280 281 281 281 281 280 280 280 280 281 282 283 283 283 283 283 284 284 284 285 285 285 285 285
266 265 265 264 263 262 263 263 263 263 263 263 263 263 263 263 264 264 265 266 267 268 269 270 270 271 271 272 272 273 274 275 276 276 275 275 275 275 275 275 276 276 275 276 276 277 278 278 279 279 279 280 280 279 279 280 280 280 279 279 279 279 280 280 280 280 280 280 280 280 280 281 281 282 282 283 283 283 284 284 284 284 284 285 285
267 266 265 264 263 263 263 263 263 263 263 263 263 263 263 264 264 265 265 266 268 269 270 270 270 271 271 272 272 272 273 274 275 276 276 275 274 274 274 275 276 276 275 275 276 276 277 278 278 278 278 278 279 279 279 279 279 279 279 279 279 279 279 279 280 280 280 281 281 281 281 281 281 281 281 282 282 282 283 283 283 283 284 284 285
268 267 267 266 265 264 264 264 264 263 263 263 263 263 264 264 264 265 265 266 267 269 270 270 271 271 271 271 272 272 273 273 274 275 277 277 276 276 275 275 275 276 276 276 276 276 277 277 277 277 277 278 278 279 279 279 279 279 279 279 279 279 279 279 279 280 280 280 281 281 281 281 282 282 282 282 282 282 282 282 282 282 283 283 284
268 268 268 267 267 266 266 266 265 264 263 263 263 263 264 264 265 265 266 266 267 267 268 269 270 271 271 271 272 272 272 273 274 274 275 276 277 277 277 276 276 275 276 276 276 277 277 277 277 276 277 278 279 279 279 279 279 279 279 279 279 279 279 279 279 280 280 280 280 280 281 281 281 281 281 281 282 282 282 282 282 282 282 283 283
Wind_Speed
17 17 18 21 23 25 26 27 29 30 30 32 32 33 32 32 32 32 32 31 31 30 29 28 27 27 27 26 26 27 27 27 27 25 24 22 21 20 21 21 20 19 19 19 19 21 22 23 24 24 25 26 26 26 25 25 24 24 25 25 25 24 23 21 19 18 21 25 29 30 30 32 34 36 38 40 41 39 38 40 43 44 45 46 45
17 17 18 21 24 26 27 28 29 30 30 32 31 30 29 29 29 29 29 30 30 30 30 29 28 26 25 25 25 25 25 26 26 26 26 25 24 23 23 23 23 22 21 20 20 20 21 22 23 24 25 25 26 26 26 25 25 24 25 25 24 24 23 22 19 18 19 20 21 25 28 30 32 36 39 40 41 42 41 40 41 43 45 46 46
16 17 18 23 26 27 27 28 28 29 30 31 30 28 28 27 27 27 27 27 28 30 31 31 29 26 23 22 23 24 24 24 25 25 25 26 26 25 25 26 26 26 24 23 22 20 19 21 23 23 24 25 25 25 25 24 24 24 24 25 24 24 23 22 21 19 19 18 17 20 22 23 26 31 37 42 42 42 43 42 41 42 44 46 47
17 17 20 25 27 27 27 27 27 28 29 30 30 29 29 28 27 26 25 26 27 29 31 31 29 25 22 21 21 22 22 22 23 23 24 25 26 27 27 27 28 29 28 26 25 23 20 19 21 23 23 24 25 25 25 24 23 23 24 25 24 24 25 24 23 20 20 18 16 16 17 17 20 25 30 37 40 41 43 44 44 43 44 45 47
18 19 22 25 26 26 26 26 26 27 28 30 31 30 29 27 27 26 26 25 26 29 31 31 30 27 25 24 23 23 23 24 25 26 26 26 27 27 28 29 30 30 30 28 27 26 24 20 20 22 22 23 24 24 25 24 23 23 23 25 25 25 26 26 25 23 21 20 18 17 15 15 17 18 20 25 32 38 41 43 44 44 45 45 47
21 22 25 26 26 27 26 26 26 26 29 30 30 30 28 27 26 25 26 26 26 29 31 32 32 30 29 29 28 28 29 30 32 33 33 33 31 30 30 30 31 32 32 30 28 27 27 23 21 22 23 23 24 24 24 24 24 23 23 24 25 26 26 26 27 25 23 21 22 22 20 19 19 17 16 16 20 28 35 39 41 43 45 46 47
25 26 28 28 28 28 28 29 28 28 30 30 30 30 29 27 26 26 27 27 28 29 31 32 32 32 31 31 30 30 31 33 34 36 37 37 36 34 32 31 30 32 34 34 31 28 28 26 23 23 24 24 25 25 25 24 24 24 24 24 24 25 26 27 27 25 24 23 23 25 25 24 25 25 23 19 15 17 24 31 35 38 41 45 48
27 29 30 30 30 31 32 32 32 31 31 31 32 33 31 29 27 27 29 29 29 30 30 32 32 32 32 31 31 31 31 33 35 37 38 40 40 38 37 34 30 29 31 34 34 30 28 28 26 24 26 26 26 27 27 26 25 25 25 25 25 25 25 26 27 25 24 24 24 24 26 26 26 28 29 26 22 19 22 25 28 31 35 40 45
28 30 31 31 32 34 35 36 36 35 35 35 35 36 35 32 30 30 31 31 31 30 30 32 33 33 33 32 32 32 33 34 36 38 40 42 43 42 42 38 32 29 29 31 34 33 29 28 27 26 27 28 28 28 28 27 26 26 25 26 26 26 26 26 27 27 25 25 25 25 26 26 26 28 29 29 28 26 25 25 26 27 29 35 41
30 32 32 33 34 35 36 37 38 38 37 37 36 36 36 35 34 33 32 33 32 29 29 31 32 32 32 32 32 33 34 35 37 40 42 43 44 45 44 36 31 29 27 26 30 31 31 29 28 28 29 29 30 30 30 28 27 27 26 25 26 28 28 27 27 27 28 28 27 26 26 27 26 27 27 28 29 29 27 26 27 26 27 31 35
34 36 34 33 34 36 38 40 39 38 36 35 36 36 36 36 36 35 34 35 32 27 28 30 29 29 29 30 31 32 34 35 38 41 44 46 45 45 41 30 27 26 23 22 24 25 26 27 28 29 30 31 32 32 31 30 29 28 27 26 26 27 28 28 28 28 28 29 30 29 29 29 28 27 26 26 27 29 28 28 28 28 28 30 30
38 35 33 36 41 43 42 40 37 35 35 35 36 36 35 36 36 36 36 34 29 26 28 28 26 26 27 28 29 31 32 35 38 41 45 46 46 45 37 26 23 23 20 19 17 18 21 24 27 30 32 33 33 33 33 32 31 30 29 27 26 26 27 28 29 29 29 30 32 32 32 32 31 30 28 27 27 27 28 29 29 26 27 29 29
35 34 39 46 46 42 37 35 35 35 35 36 36 36 35 35 35 36 34 29 26 28 29 27 25 25 26 27 28 30 32 35 38 42 44 45 44 41 31 24 23 22 21 19 14 15 20 24 28 30 33 34 34 35 34 33 33 32 31 30 28 26 26 26 28 30 31 31 32 33 33 34 34 33 31 30 30 29 29 30 30 28 27 28 28
35 43 47 45 38 35 35 35 35 34 35 34 33 32 31 30 29 30 28 25 27 29 27 23 23 23 24 26 28 31 35 38 41 43 44 44 41 34 27 25 23 21 24 25 20 18 20 22 26 29 31 33 34 35 35 35 34 34 34 33 31 29 27 26 27 29 32 33 33 33 34 34 34 34 33 32 31 30 30 30 30 28 28 29 29
44 48 42 35 34 35 34 32 33 33 34 33 31 31 31 30 29 28 28 29 30 27 22 19 20 22 25 29 32 35 37 40 42 43 43 42 38 30 25 24 23 23 26 28 28 26 25 24 25 27 28 30 31 33 34 35 34 35 35 34 33 32 30 29 28 28 31 33 34 34 35 36 35 35 35 34 33 33 32 31 29 27 26 28 30
48 40 32 33 34 33 29 30 32 34 35 35 35 36 37 35 33 33 31 28 24 20 19 20 24 28 31 34 37 38 40 41 43 44 40 35 31 26 23 25 28 28 25 25 26 28 29 29 28 28 28 29 30 31 32 34 34 34 35 35 34 33 33 33 32 30 30 32 36 35 34 36 37 36 36 35 34 33 32 31 30 28 26 25 26
39 31 31 33 31 29 29 33 36 38 41 42 42 42 40 38 34 32 28 23 21 21 24 28 32 35 37 38 40 41 43 43 41 37 32 26 22 19 18 20 23 22 20 21 25 27 28 30 31 31 31 30 31 31 32 33 34 34 34 34 34 33 34 35 34 33 31 31 35 37 35 36 37 37 37 36 35 33 32 31 31 30 28 26 24
30 30 32 30 30 33 38 42 42 43 44 42 40 37 34 33 28 24 23 23 25 28 31 34 37 38 40 42 43 43 40 36 31 27 23 21 18 15 16 18 19 19 19 21 25 27 28 29 30 31 32 32 32 32 33 33 34 35 35 34 33 32 34 35 35 34 33 32 33 37 37 37 37 37 37 37 36 34 32 32 32 31 30 29 28
29 31 30 31 38 45 48 46 42 40 36 32 33 34 31 31 28 25 27 31 32 34 36 38 39 40 42 42 40 35 31 27 23 22 21 19 17 16 20 24 25 24 24 25 26 28 29 30 31 32 32 32 33 34 34 35 35 36 35 35 33 32 33 35 35 35 34 33 33 37 38 38 38 36 35 37 38 36 33 33 32 32 31 31 31
29 29 31 40 46 47 43 38 37 36 31 30 34 34 32 34 33 31 33 37 37 36 36 37 39 40 40 37 31 27 24 22 21 21 20 20 20 19 21 23 25 26 27 28 29 30 31 32 33 33 33 32 32 31 32 33 34 34 34 33 32 31 32 34 35 35 35 33 34 36 38 38 37 36 34 35 37 37 36 34 33 32 31 31 32
30 29 36 42 40 38 35 32 36 36 32 34 35 33 32 34 34 31 30 32 32 33 35 36 36 35 32 28 26 23 21 20 21 22 22 22 23 23 23 25 27 27 28 29 30 30 31 32 33 32 32 32 32 30 28 28 29 30 31 31 31 30 31 32 33 33 33 33 34 35 37 37 36 35 33 34 37 38 37 35 33 32 31 31 32
30 32 39 38 32 33 33 34 39 38 36 36 34 31 30 30 29 28 28 29 33 37 38 35 31 27 25 24 23 21 20 20 21 22 23 23 25 27 27 27 27 27 26 27 27 28 27 26 26 28 29 30 31 31 29 28 28 28 28 28 28 28 27 27 28 29 30 30 32 34 37 37 35 35 34 34 36 38 38 37 34 33 32 31 31
32 36 38 33 29 31 35 40 41 37 35 34 32 29 27 27 28 29 30 33 36 36 33 30 26 25 24 24 23 21 20 20 21 21 22 23 24 26 25 24 24 23 22 21 22 22 20 19 21 22 24 26 28 29 30 30 29 28 26 26 24 24 25 24 25 25 24 25 29 33 35 35 34 34 34 34 36 39 39 37 35 33 32 32 32
39 40 31 27 29 34 40 43 38 34 33 34 33 30 29 31 32 32 32 32 32 30 27 28 28 26 26 25 24 23 21 20 21 21 22 22 23 24 23 22 22 20 19 19 19 18 17 19 21 21 21 22 22 22 24 26 26 27 28 29 28 28 29 28 27 25 22 22 26 30 33 34 32 32 34 34 37 40 39 35 33 32 32 33 33
41 38 27 27 36 42 41 35 32 34 36 36 36 34 32 31 31 33 32 29 30 29 28 28 28 27 27 26 25 24 22 21 23 24 25 25 25 25 24 23 21 19 18 18 18 17 18 20 22 21 18 17 18 20 22 24 26 28 29 30 30 31 31 31 29 29 27 24 23 26 30 31 31 31 33 34 36 39 37 32 32 32 33 33 32
38 31 26 32 44 47 39 30 32 37 38 37 36 33 31 30 30 32 31 30 31 30 28 29 28 28 28 27 26 25 25 25 25 26 26 26 26 25 24 23 21 20 20 20 20 21 21 22 22 21 19 18 20 23 25 27 27 29 30 31 32 32 31 31 30 31 31 28 25 25 27 29 30 31 32 34 36 39 37 33 33 34 32 31 31
34 27 30 39 45 42 33 30 36 39 38 36 33 31 31 32 33 32 31 31 31 29 29 29 28 28 28 27 27 27 27 27 27 27 26 26 25 24 24 23 22 23 23 24 24 23 21 21 23 24 23 23 24 26 29 30 30 31 31 32 33 33 32 31 31 32 33 31 27 26 26 27 30 31 32 34 36 38 38 34 34 34 31 30 30
29 27 36 41 41 35 30 34 41 40 38 35 32 31 32 33 34 32 31 32 31 30 30 29 29 29 28 28 28 28 28 28 27 27 27 26 26 25 24 23 23 24 24 23 23 22 21 20 22 26 27 27 28 29 31 32 33 34 34 34 34 34 32 31 32 34 35 33 28 26 24 24 27 30 32 34 36 37 36 33 33 32 31 30 30
27 30 37 38 36 33 33 39 42 40 38 35 33 33 34 34 34 33 32 33 32 32 31 31 31 30 29 29 29 29 29 29 29 28 27 27 26 25 24 23 22 22 22 21 21 20 19 19 21 25 28 30 31 32 32 33 34 34 35 36 36 35 33 32 33 35 37 35 30 26 23 22 25 27 28 31 33 33 32 32 32 31 30 29 30
28 34 37 36 34 32 36 43 42 39 37 36 35 35 34 35 35 34 34 34 34 34 33 32 33 32 33 32 31 32 32 32 31 30 29 28 27 26 25 23 22 21 20 20 19 18 18 18 19 22 24 27 29 30 30 30 30 31 33 35 37 36 35 34 34 35 37 36 32 27 24 25 27 25 24 26 28 28 30 31 31 31 30 30 31
31 36 35 34 33 32 38 45 42 38 37 36 36 35 34 34 35 36 36 35 35 35 34 34 35 35 36 35 35 35 34 33 32 30 30 29 28 27 25 23 22 21 19 19 18 17 16 16 17 18 20 21 22 22 22 22 22 24 26 30 34 36 37 37 36 36 37 37 33 27 25 28 29 26 23 24 25 27 28 30 31 32 32 32 32
34 36 34 35 34 33 40 45 41 38 38 37 36 35 34 35 36 37 37 36 36 36 35 37 37 37 37 36 36 37 35 34 33 32 31 30 28 26 25 23 22 21 19 17 16 15 14 13 13 14 15 16 16 15 15 16 16 17 20 24 30 34 37 38 38 37 37 37 34 29 26 30 31 28 26 25 26 27 29 29 30 32 33 33 32
37 35 33 35 34 33 39 42 39 38 38 37 36 35 34 34 36 37 37 37 37 37 38 38 38 38 38 37 37 37 36 35 33 32 31 29 27 26 24 23 22 20 18 17 15 14 14 13 13 13 13 13 11 9 9 10 11 13 15 20 25 30 34 37 37 37 37 38 36 32 29 29 29 28 27 27 28 29 29 29 29 30 32 31 30
38 35 33 35 35 35 38 40 38 38 38 37 35 34 33 34 35 37 38 37 38 39 39 39 39 39 38 38 38 37 36 34 32 31 30 28 27 26 23 22 21 20 18 16 16 15 15 14 14 14 13 11 7 5 5 6 7 9 12 17 21 25 28 32 34 35 37 38 38 36 32 29 27 26 27 28 29 29 28 28 29 29 29 28 29
37 33 35 37 36 36 38 39 38 38 38 36 35 34 34 35 36 38 38 38 39 40 40 39 39 39 38 38 38 37 35 34 33 32 30 29 27 26 24 23 21 19 18 17 17 17 16 15 15 15 14 9 5 4 3 2 3 5 8 14 19 21 23 26 28 30 33 37 40 39 36 31 27 26 28 29 29 28 28 27 27 27 26 25 27
36 32 35 37 35 35 37 38 37 38 37 36 34 34 35 36 37 38 38 38 39 40 40 39 39 38 37 36 36 36 34 33 33 32 31 29 27 26 25 24 22 19 17 17 17 17 16 14 14 14 15 12 7 6 5 4 2 5 9 14 17 20 22 24 24 25 26 31 39 42 40 34 29 27 27 27 28 27 26 26 25 25 25 25 25
34 32 35 34 33 34 36 36 37 37 36 34 34 34 35 37 38 39 38 39 40 39 39 38 37 37 36 34 34 34 33 32 32 31 31 29 28 27 25 24 22 20 17 17 18 17 16 15 14 14 15 15 13 10 8 8 6 6 9 12 15 18 20 21 22 22 22 24 30 40 43 38 32 29 26 25 26 26 25 24 24 23 23 24 24
33 33 34 33 33 34 35 36 36 35 34 33 33 34 35 37 39 39 39 40 39 38 38 37 36 35 34 33 32 31 31 31 30 30 30 29 29 27 25 23 22 19 18 20 21 19 17 16 16 16 15 17 16 14 11 12 11 10 9 9 10 12 13 15 17 19 21 21 21 30 42 43 37 31 27 25 27 27 24 24 25 23 22 23 24
34 34 33 33 33 34 35 35 35 35 34 32 34 35 36 37 39 39 40 40 39 38 37 36 35 34 32 31 30 29 29 29 28 28 29 28 27 26 24 21 20 19 20 22 22 21 18 16 17 17 15 16 17 16 14 13 13 13 12 12 12 11 11 13 15 17 19 20 19 21 32 42 42 35 30 27 27 27 26 25 24 22 22 23 24
35 34 33 33 33 34 36 35 35 35 33 33 35 36 37 38 38 39 39 39 38 37 36 35 34 32 31 29 29 28 27 26 26 27 26 25 25 25 22 20 20 20 21 23 23 22 20 18 19 20 17 15 16 17 15 15 16 15 13 13 13 14 13 12 13 15 17 19 19 18 23 34 42 41 35 31 29 27 26 25 23 22 23 23 23
35 34 33 33 33 34 35 34 34 33 33 33 35 36 37 38 37 38 38 37 36 35 34 33 32 31 29 28 27 26 26 25 25 24 23 22 22 21 20 20 20 20 22 23 23 23 23 21 21 21 18 15 15 16 14 13 15 15 12 11 13 14 16 15 13 13 14 16 18 18 17 23 36 43 41 35 32 30 27 25 24 24 24 24 23
35 33 32 33 33 34 34 33 32 32 32 33 34 36 37 37 37 37 37 36 35 34 32 31 30 29 27 26 26 25 25 24 24 23 22 21 20 19 19 20 20 20 21 23 23 25 26 23 22 20 17 15 16 17 15 13 11 11 10 9 11 13 14 17 17 15 13 13 16 18 17 15 22 36 43 40 35 32 30 29 28 27 26 25 24
36 34 33 32 33 34 34 33 32 31 31 32 34 35 36 35 36 36 35 35 34 33 31 30 28 27 26 25 24 24 23 23 23 22 21 20 19 18 18 19 20 21 22 23 25 27 29 26 23 20 15 15 18 16 14 14 13 11 11 10 10 11 11 13 17 19 17 15 14 16 17 15 14 22 35 40 39 36 33 32 31 30 29 27 26
36 35 33 31 33 34 33 32 31 30 30 31 32 34 35 34 34 35 34 35 34 32 31 29 27 26 26 24 23 23 22 22 21 20 19 19 19 19 19 19 19 21 24 26 27 30 32 30 25 20 15 15 17 16 14 14 13 11 10 10 9 10 10 11 13 17 19 19 18 16 16 15 13 14 21 30 34 35 33 32 30 29 28 26 26
35 34 32 31 32 33 33 32 30 29 29 30 30 32 33 33 33 34 34 35 34 32 30 29 27 26 25 24 23 22 22 21 20 20 19 18 18 19 20 20 20 21 25 28 28 30 34 32 27 22 17 15 15 17 18 18 17 15 12 11 10 10 10 10 11 13 14 17 20 19 18 17 16 16 17 21 24 26 28 29 29 27 27 28 29
34 33 32 32 32 32 32 32 30 28 28 29 29 29 31 32 33 33 33 34 33 32 31 28 27 25 24 24 24 23 22 22 20 19 17 16 16 18 20 21 22 22 24 26 26 28 32 32 28 23 20 17 16 17 19 21 21 20 19 17 14 11 11 11 11 11 12 13 16 17 18 20 22 22 22 22 23 23 23 25 26 26 26 28 31
33 31 30 31 32 32 32 31 30 29 29 29 29 28 28 30 31 31 32 32 32 32 31 28 26 25 25 24 24 24 24 23 21 20 18 15 14 16 19 22 22 21 23 25 24 25 30 30 26 22 19 17 17 18 19 20 20 19 20 20 18 15 11 10 9 8 8 9 12 14 16 18 21 24 25 25 24 24 23 23 23 24 25 26 28
33 31 29 29 30 31 30 30 30 30 29 29 29 28 28 29 29 30 31 31 31 31 30 28 26 25 25 24 24 25 25 24 22 21 20 18 17 17 19 21 20 19 21 23 22 22 26 27 24 21 19 17 17 18 19 20 20 18 19 19 19 18 15 12 10 7 5 4 6 9 11 12 14 17 21 24 27 28 27 26 25 25 25 25 26
33 32 30 29 29 29 29 29 29 30 30 30 28 28 28 28 28 29 30 30 30 29 28 27 26 25 24 24 24 24 25 24 23 20 18 16 16 17 20 20 18 15 15 18 18 18 20 22 22 21 19 17 18 18 19 20 20 19 19 18 17 17 16 14 12 9 4 2 2 3 6 8 10 12 14 17 22 27 28 28 28 28 28 26 25
32 31 30 29 28 28 29 29 29 30 30 30 28 27 27 27 27 28 28 30 30 29 28 27 26 25 24 24 24 24 23 23 23 22 19 15 12 13 16 19 18 14 10 10 13 14 14 15 19 20 18 16 17 18 20 23 23 21 19 17 16 15 14 13 12 10 5 2 2 3 3 5 8 10 11 11 13 17 19 21 24 26 27 29 27
30 30 29 29 28 28 28 29 29 30 30 29 28 27 27 26 26 26 27 28 29 30 29 28 26 25 24 23 23 24 23 22 22 22 22 20 16 13 14 15 16 15 11 8 10 11 11 10 13 16 15 14 15 18 20 23 25 22 18 17 16 16 14 11 9 6 3 1 2 2 2 3 4 7 9 11 12 14 15 17 19 21 23 27 30
Wind_Direction
14 13 9 4 3 360 359 358 357 357 356 355 353 350 347 343 340 339 339 339 339 338 337 334 328 321 316 315 314 313 312 310 307 305 303 301 297 292 288 284 282 280 280 282 283 284 283 282 281 280 278 277 277 277 277 276 275 276 277 279 281 281 281 281 279 272 264 256 253 253 251 248 246 246 247 247 246 244 241 241 244 244 242 240 240
6 5 359 355 354 353 353 353 354 353 351 351 348 344 340 336 334 333 334 336 337 337 338 337 335 329 321 318 316 315 316 314 312 309 304 299 296 291 286 283 280 278 276 276 277 281 283 282 280 280 279 277 277 276 275 275 273 272 273 274 275 277 278 278 278 276 272 268 265 261 257 252 247 244 245 247 247 245 242 239 241 243 242 241 239
356 353 349 348 347 348 349 349 349 347 346 345 341 337 333 330 328 326 329 333 336 337 337 337 337 333 325 320 319 318 319 319 316 313 308 300 294 289 285 281 277 275 274 273 273 275 281 284 282 279 279 278 277 277 275 274 273 270 268 269 269 268 270 272 274 275 273 273 273 267 262 259 255 247 243 243 245 245 243 240 239 240 242 242 240
342 341 341 342 341 343 344 344 344 342 341 340 337 333 329 327 324 321 322 326 331 335 337 337 337 336 330 326 325 323 321 322 319 314 311 306 298 291 285 280 275 272 272 272 271 270 273 282 285 281 279 278 278 277 277 275 273 270 266 264 264 263 264 266 268 269 267 267 267 266 266 263 259 254 249 245 244 245 245 242 239 239 240 241 240
329 331 334 335 335 336 336 337 337 335 335 334 332 329 325 323 320 315 314 316 323 331 334 335 335 334 333 331 329 327 325 326 326 324 322 319 312 304 296 288 280 273 271 270 270 269 269 274 283 284 281 279 278 277 277 275 272 270 266 263 261 261 261 262 261 260 259 257 255 258 260 256 254 256 258 254 247 245 245 245 242 240 240 240 239
321 321 324 327 328 327 327 329 328 327 329 329 326 324 320 317 313 307 305 306 314 324 329 330 329 329 329 330 330 331 331 332 334 334 332 330 324 316 307 300 290 279 272 270 270 270 268 268 275 281 281 280 279 278 276 275 272 269 266 264 260 258 259 259 258 256 255 252 249 249 249 249 255 260 267 268 256 246 244 246 246 243 242 241 239
321 318 318 318 319 319 319 321 321 320 324 324 320 318 314 310 305 300 298 300 305 314 321 324 324 325 325 326 327 327 328 330 332 333 333 332 328 321 314 307 298 286 276 270 269 270 269 266 268 275 278 278 278 277 276 274 272 268 265 263 261 257 256 258 259 256 252 250 247 248 247 246 251 259 267 274 274 257 244 243 245 243 242 241 239
322 317 315 313 312 314 314 315 316 316 318 319 316 314 310 304 297 294 293 295 299 306 314 319 320 321 321 321 321 321 322 323 325 327 328 329 328 325 320 311 301 290 279 271 266 265 267 265 264 268 272 273 274 274 274 274 272 269 265 262 260 258 256 257 259 257 252 251 248 246 247 247 247 251 256 262 269 271 260 250 246 243 240 239 238
323 318 315 312 312 315 316 316 316 314 314 314 315 314 309 301 293 291 292 294 295 299 307 314 316 317 317 316 316 316 317 318 319 320 322 324 325 325 323 316 305 292 281 274 267 261 261 264 263 263 266 268 269 269 270 272 272 272 269 265 261 257 256 256 258 257 254 251 249 245 245 247 248 250 251 254 259 264 267 264 256 250 244 239 237
327 324 320 317 318 321 322 321 318 316 315 314 314 315 311 304 296 291 293 293 289 293 303 310 312 312 311 311 310 311 312 312 313 315 318 320 320 322 322 315 302 294 288 282 274 263 258 259 260 261 262 264 264 265 267 269 270 271 271 269 265 259 255 254 255 256 254 252 249 246 245 246 249 251 251 251 252 255 261 265 263 260 254 246 240
329 327 324 325 327 328 326 323 320 318 318 315 315 316 314 309 300 291 292 289 284 294 307 308 307 304 302 302 302 303 305 307 309 312 314 316 317 318 318 308 292 293 299 295 285 272 262 258 256 256 258 259 261 263 266 267 268 268 269 269 268 265 260 255 254 253 253 252 249 246 245 245 246 249 251 251 252 253 257 261 262 263 261 256 249
331 332 334 335 332 328 326 325 325 325 325 322 320 319 318 316 307 297 292 284 284 302 310 305 300 293 291 293 295 298 301 304 307 310 312 313 313 314 312 299 286 290 293 293 287 273 261 251 249 251 254 256 258 260 261 263 265 266 266 267 267 267 264 260 257 254 253 252 250 248 248 247 246 247 249 251 252 254 256 259 261 262 262 260 256
338 341 340 336 331 331 333 334 334 332 329 327 325 323 322 320 315 307 298 288 294 309 307 299 290 283 285 289 293 298 301 304 308 310 311 311 310 310 304 289 283 282 273 271 272 264 254 244 242 247 251 254 256 257 258 259 261 263 264 265 264 264 265 264 261 256 253 253 252 250 249 249 248 247 248 249 251 253 254 257 258 258 260 262 261
345 342 338 337 338 341 341 340 339 337 335 333 332 333 331 329 325 318 308 301 307 310 300 287 278 277 285 293 298 303 307 309 310 310 309 309 307 302 294 283 280 276 265 261 265 266 262 254 250 250 251 253 254 255 257 257 258 261 263 264 264 264 264 264 265 261 256 252 252 252 250 249 249 247 247 247 249 250 250 252 255 256 257 259 261
344 341 341 344 346 345 343 345 346 345 344 343 343 346 343 339 333 326 319 314 310 303 289 278 278 286 296 302 307 311 312 312 310 309 307 306 303 295 287 279 272 270 268 267 269 270 267 263 260 258 257 256 254 254 255 256 257 258 260 262 263 265 267 266 266 266 261 253 249 251 251 250 250 248 246 246 247 247 247 247 249 251 254 256 258
341 342 347 349 348 348 350 351 347 344 344 343 341 339 337 334 330 325 320 312 303 292 289 294 300 306 310 312 314 314 313 311 308 307 306 303 300 292 283 275 268 270 274 273 272 271 268 264 260 258 259 258 256 255 254 255 256 256 257 259 261 264 268 268 268 270 268 258 249 248 250 250 249 248 246 245 244 245 245 244 244 245 247 252 255
342 347 349 349 350 350 348 343 338 335 334 332 330 329 330 330 325 320 316 308 304 305 309 314 316 317 317 315 315 313 311 310 307 307 307 304 299 293 287 281 274 274 275 271 268 267 266 264 262 259 257 257 256 255 255 256 256 256 257 259 262 264 267 268 269 270 272 265 252 247 248 250 249 248 247 244 241 241 242 242 242 243 242 245 248
345 347 347 348 348 342 336 333 331 331 331 330 330 332 335 335 328 322 326 327 325 324 323 322 321 319 317 314 313 312 310 309 307 307 309 304 296 292 290 289 285 280 274 269 265 263 263 263 264 263 260 258 258 256 256 256 256 257 258 261 264 265 266 267 269 269 271 270 257 246 246 249 250 250 248 242 239 239 240 240 242 243 242 242 244
348 347 347 344 339 335 333 333 334 335 336 336 335 334 333 333 332 332 334 330 327 326 325 323 320 318 316 314 313 313 311 310 308 307 307 300 293 294 293 290 289 285 279 273 268 265 266 266 266 267 266 264 262 261 260 259 258 259 262 265 266 266 267 268 269 269 270 270 259 247 244 247 249 251 249 244 240 240 240 240 241 242 242 242 243
349 344 340 336 334 336 338 340 342 341 339 336 334 331 327 326 330 330 327 324 323 324 324 321 318 317 315 314 314 313 311 311 309 307 305 300 297 298 296 292 289 286 282 279 275 272 272 272 272 271 270 269 266 263 263 262 262 262 264 266 266 266 267 268 270 270 270 267 258 248 243 243 246 250 250 245 241 240 241 240 240 241 242 243 243
348 341 337 334 336 342 344 344 344 342 337 336 336 335 330 329 333 333 330 330 329 327 325 322 319 318 317 316 316 314 310 310 308 306 303 301 300 298 296 294 292 289 286 284 283 281 280 279 277 275 271 268 264 261 259 260 260 261 262 264 264 264 265 267 269 270 268 263 256 249 243 240 241 246 249 246 243 241 240 238 238 241 242 243 244
347 340 336 335 337 343 344 342 341 339 336 337 338 337 336 336 339 339 336 334 331 326 325 325 322 321 320 318 317 314 311 310 309 307 305 302 300 298 296 295 294 292 289 287 285 285 284 280 277 274 269 266 263 258 254 253 255 258 261 263 264 263 261 262 264 268 270 265 256 249 244 239 239 243 245 245 243 241 238 235 235 240 243 243 243
344 339 335 335 337 340 342 340 339 339 339 341 341 341 341 340 339 337 333 330 329 328 327 327 326 323 322 321 319 316 313 311 311 310 308 306 305 304 302 299 297 296 292 287 285 284 282 280 278 273 268 265 262 257 253 251 252 255 256 254 252 252 252 253 259 266 273 271 262 253 245 239 239 241 243 244 242 240 237 233 232 237 242 243 243
343 342 339 339 341 341 340 340 342 343 343 342 340 337 336 336 336 334 331 330 332 333 331 330 328 326 324 322 320 317 313 310 310 310 309 309 311 312 310 306 302 298 291 287 285 281 279 280 277 275 275 271 265 257 251 248 247 247 246 243 242 245 248 251 253 253 257 265 266 259 249 239 237 241 244 244 242 240 238 233 232 235 241 244 245
344 346 345 342 342 342 340 341 344 344 340 338 336 335 333 333 335 336 335 334 335 334 332 331 329 327 325 324 321 319 316 312 311 312 314 316 317 316 314 310 303 295 289 287 284 281 282 280 273 274 280 271 256 248 242 238 237 237 240 241 240 243 247 249 249 246 247 254 259 259 253 242 235 239 244 245 242 240 238 232 230 236 242 246 247
345 347 347 342 342 343 342 342 342 340 338 336 336 337 337 335 335 337 337 335 335 334 333 331 329 328 327 325 324 322 320 318 316 315 317 318 318 315 312 307 300 294 291 289 288 286 286 281 272 270 271 256 244 243 241 240 239 238 239 239 239 241 243 246 248 245 245 248 250 252 251 244 238 238 242 244 242 240 237 231 230 236 243 247 247
343 343 342 341 342 343 345 344 341 338 337 337 338 338 338 337 337 338 337 336 336 334 333 332 330 329 328 327 326 324 322 322 320 318 317 315 314 311 307 303 298 296 295 295 294 292 288 281 271 266 263 254 249 248 246 245 245 243 241 241 239 240 241 243 245 245 245 248 249 244 242 243 242 242 243 242 239 237 235 231 232 237 242 245 244
342 341 341 343 344 344 343 340 339 339 339 339 339 338 337 337 338 338 337 337 336 334 333 333 332 332 330 328 328 326 324 323 322 320 319 318 316 313 310 307 304 301 301 300 299 296 289 280 269 262 260 258 256 254 252 251 250 247 245 243 241 240 241 241 243 244 245 247 249 243 237 240 245 248 248 241 235 233 232 232 233 237 240 242 241
343 342 342 343 343 342 341 339 339 341 341 339 339 338 337 338 338 337 336 337 337 336 336 335 335 334 332 330 330 331 330 331 330 329 329 329 328 325 321 319 316 314 312 310 308 303 295 284 271 264 263 262 262 262 261 259 257 254 249 245 243 241 241 241 241 244 245 246 250 246 236 234 239 245 248 241 233 231 230 231 234 236 237 239 239
343 341 341 343 342 340 339 340 342 343 341 339 339 338 337 337 338 338 338 338 339 340 340 338 337 339 339 338 339 339 339 339 340 341 342 341 340 337 334 332 329 326 323 321 317 310 302 292 283 275 271 269 269 269 269 266 262 259 253 247 244 241 240 240 240 243 245 245 248 248 238 233 236 240 244 240 231 229 231 232 233 235 235 236 239
341 340 340 342 341 338 339 342 345 343 340 339 338 337 336 337 338 340 340 341 343 343 342 343 344 346 347 346 345 344 344 345 346 348 348 347 346 343 341 339 337 334 330 327 323 318 310 302 295 288 282 279 277 275 276 273 266 260 254 249 245 241 240 240 239 243 245 244 247 248 238 234 237 237 236 233 228 230 235 235 234 235 235 235 239
339 339 340 341 340 337 338 342 344 342 340 340 339 337 337 338 339 341 343 344 345 346 346 348 351 351 350 349 348 348 348 349 351 351 351 350 349 347 345 344 341 339 337 334 331 326 321 314 306 300 294 291 289 285 280 275 269 261 253 249 247 244 242 241 240 242 245 245 245 245 238 234 235 232 227 225 227 231 235 236 236 237 237 237 238
337 337 338 339 339 337 338 341 343 342 341 341 340 338 337 338 339 342 345 346 347 350 350 350 353 353 352 352 351 349 349 351 353 353 352 353 352 351 350 347 345 345 344 342 341 337 334 332 326 321 316 312 312 309 295 282 273 262 251 248 247 246 244 243 241 240 243 245 244 244 240 236 233 229 225 225 227 231 233 233 235 237 238 237 232
336 337 336 338 339 338 338 340 342 342 343 343 342 341 340 340 341 343 346 348 349 351 351 352 354 354 354 353 352 350 350 352 354 355 355 356 355 355 355 352 351 352 349 348 350 349 349 347 341 336 334 333 335 331 313 294 281 267 254 250 251 252 250 248 245 241 239 240 241 243 244 240 234 228 226 226 227 228 229 230 233 236 239 236 225
336 336 335 338 340 338 338 340 342 344 346 345 344 344 344 343 344 346 348 350 350 351 352 353 354 354 355 354 352 351 352 353 355 356 358 358 357 357 358 356 356 358 357 356 358 358 359 357 351 345 343 345 341 317 303 292 294 292 274 258 255 258 259 258 255 248 241 236 235 238 243 243 236 229 226 226 227 228 227 229 232 237 241 238 227
336 335 335 337 340 338 338 340 343 346 347 346 345 347 346 343 345 348 350 351 351 352 353 354 354 355 355 355 353 352 352 354 356 356 357 359 359 359 358 357 358 3 4 2 2 3 2 360 357 350 345 345 346 326 296 266 261 300 296 283 276 275 273 270 267 261 252 239 231 232 237 241 238 232 227 224 224 227 228 228 231 235 240 244 238
336 335 336 338 339 338 340 343 345 347 348 346 347 349 346 344 346 349 350 351 351 351 352 353 353 354 354 355 355 353 352 354 355 355 356 358 358 358 358 357 359 5 10 9 7 7 5 3 4 358 346 339 342 339 318 296 285 285 286 287 295 296 287 279 276 271 266 254 236 228 230 235 237 232 227 223 221 224 226 226 228 232 236 243 244
337 336 338 341 340 339 343 346 346 347 348 348 350 350 345 344 347 349 350 350 350 351 351 351 352 353 353 354 354 354 354 354 354 354 356 357 358 357 356 359 2 7 12 12 10 9 8 6 4 1 349 335 332 334 327 314 306 298 282 271 281 294 291 284 281 277 272 268 253 233 227 230 233 231 227 225 221 222 225 224 227 231 233 237 241
339 339 340 340 339 341 344 347 348 347 348 351 352 350 346 345 348 349 349 349 349 349 349 348 349 350 351 352 354 355 356 355 354 354 355 356 356 355 356 2 7 9 11 13 12 9 7 7 5 1 350 335 327 324 322 316 311 305 292 275 263 265 278 284 281 278 274 272 268 248 229 227 229 228 227 225 221 221 226 227 228 234 236 236 236
341 342 342 340 340 342 344 347 349 348 349 353 353 349 347 346 347 348 348 347 346 346 346 346 347 348 350 352 354 356 356 356 355 354 355 355 355 355 358 6 10 11 12 12 11 8 5 4 5 2 350 334 324 319 315 307 302 301 295 284 269 255 257 271 277 276 274 271 269 263 240 228 227 227 226 226 225 225 228 230 233 237 240 237 236
342 343 343 342 342 343 345 347 350 348 350 354 353 348 346 346 347 348 347 345 344 345 345 346 346 348 350 352 355 356 356 356 356 356 356 356 357 359 3 8 13 13 12 11 10 9 5 2 5 5 356 345 339 337 332 319 306 304 300 289 278 262 248 249 261 268 270 270 270 269 259 237 228 226 226 227 229 230 231 234 238 239 240 239 238
343 344 345 343 342 343 345 348 350 350 351 354 352 347 346 347 347 347 345 344 345 346 346 346 346 348 350 352 355 356 356 357 358 359 358 357 360 6 8 11 14 13 10 11 11 10 6 4 7 10 5 1 1 357 354 354 346 339 333 310 296 287 263 247 246 251 255 263 266 269 272 260 234 226 226 227 230 232 233 238 242 243 244 243 238
345 345 345 344 342 342 344 347 351 351 352 354 352 347 346 347 347 346 344 344 346 347 347 346 347 348 350 353 356 356 358 360 360 0 360 358 2 10 13 12 12 10 8 10 12 10 7 5 7 11 12 13 13 8 2 5 6 4 1 346 321 310 296 268 252 246 242 243 250 256 264 269 252 229 224 225 228 233 237 241 244 245 246 242 234
345 344 344 345 343 342 344 346 350 352 353 355 353 347 345 346 346 345 345 345 346 348 347 348 349 349 350 354 357 358 360 3 4 3 2 0 3 12 15 12 10 9 8 9 10 9 8 6 6 9 12 14 15 12 8 5 359 352 346 340 328 315 307 294 273 257 245 237 236 237 241 248 250 234 223 223 227 231 236 238 239 240 239 234 228
346 344 344 345 343 342 343 345 350 353 353 355 355 350 346 346 346 346 346 346 347 348 349 350 351 350 350 353 356 359 2 5 8 8 7 5 4 9 13 12 10 9 9 8 7 9 10 9 10 12 13 15 16 12 7 2 359 355 348 334 322 313 306 300 292 280 263 246 238 232 226 225 231 232 224 220 224 227 229 230 230 231 231 230 228
346 346 345 344 344 344 344 345 350 354 354 355 356 353 348 347 347 348 348 348 347 348 350 352 352 352 353 353 354 357 0 5 11 14 15 12 6 5 10 13 11 8 7 5 4 7 10 10 14 22 26 25 21 16 10 4 359 357 354 347 335 321 308 301 294 285 275 259 247 241 233 226 227 231 228 223 222 223 225 226 225 226 227 229 229
347 347 346 344 345 345 344 345 349 353 355 356 355 354 351 349 348 349 349 349 349 349 350 353 354 354 355 354 354 356 359 2 8 13 17 18 12 9 11 12 9 6 5 2 360 5 11 11 12 19 25 22 16 13 8 1 355 351 348 346 344 338 327 316 304 289 274 260 250 245 242 235 231 232 231 228 226 224 222 221 221 222 226 228 228
347 347 347 347 346 344 344 346 348 352 356 356 355 354 352 350 351 351 350 350 350 351 351 353 356 356 355 355 356 358 359 0 4 10 15 15 12 13 14 10 5 3 2 359 356 1 9 12 10 8 9 9 9 9 7 359 352 349 344 340 342 344 341 334 319 301 287 278 256 240 234 233 233 234 231 229 229 229 227 223 218 218 223 226 228
346 348 349 349 347 345 345 347 349 353 356 356 355 354 353 353 353 353 352 351 350 352 353 355 356 357 356 356 358 360 0 360 1 7 17 22 19 13 9 4 0 359 358 355 357 2 7 12 14 9 5 5 4 3 3 359 353 349 344 340 340 341 339 337 329 315 297 297 300 253 227 220 224 233 236 232 230 231 232 231 227 222 222 224 228
347 348 349 350 350 348 348 349 351 354 356 356 356 356 355 356 356 355 354 353 351 352 355 356 356 357 357 356 357 359 360 1 2 4 11 25 33 23 11 2 357 356 351 345 352 359 360 10 18 12 3 3 3 0 360 358 355 352 347 343 346 347 342 337 333 327 311 259 266 294 276 237 221 226 235 236 231 229 231 233 234 232 229 226 227
348 348 350 352 353 353 352 352 354 356 356 356 356 357 356 357 359 358 357 355 355 354 354 354 354 356 358 357 356 357 358 1 5 4 1 2 5 9 14 11 3 0 360 348 343 345 344 358 15 11 1 356 358 360 358 353 350 351 350 347 351 355 354 349 345 342 334 280 270 301 302 266 228 225 230 230 230 230 230 230 232 235 235 231 227